Location: Rowland
(34.5359°N, 79.2929°W)
Time: 16:19:49
(UTC+00:00)

SR - Pass Details

Date: 07 October 2022
Orbit: 577 x 874 km, 66.7° (Epoch: 05 December)

Event Time Altitude Azimuth Distance (km) Brightness Sun altitude
Rises 23:51:40 0° 179° (S) 3,378 ? -12.6°
Reaches altitude 10° 23:54:19 10° 170° (S) 2,476 ? -13.2°
Maximum altitude 23:59:23 32° 108° (ESE) 1,439 ? -14.2°
Drops below altitude 10° 00:04:33 10° 47° (NE) 2,526 ? -15.3°
Enters shadow 00:04:40 10° 46° (NE) 2,565 ? -15.3°
Sets 00:07:16 0° 38° (NE) 3,458 - -15.8°
